Regional Weather Roundup
Issued by NWS

Home | Current Version | Previous Version | Graphics & Text | Print | Product List | Glossary Off
Versions: 1 2 3 4 5 6 7 8 9 10 11 12 13 14 15 16 17 18 19 20 21 22 23 24 25 26 27 28 29 30 31 32 33 34 35 36 37 38 39 40 41 42 43 44 45 46 47 48 49 50

000
ASUS43 KMKX 282000
RWRWI

WISCONSIN REGIONAL WEATHER ROUNDUP
NATIONAL WEATHER SERVICE MILWAUKEE/SULLIVAN WI
300 PM CDT THU APR 28 2016

NOTE: "FAIR" INDICATES FEW OR NO CLOUDS BELOW 12,000 FEET WITH NO
SIGNIFICANT WEATHER AND/OR OBSTRUCTIONS TO VISIBILITY.

WIZ001-002-006>008-014>016-023>028-282100-
NORTHWEST WISCONSIN

CITY           SKY/WX    TMP DP  RH WIND       PRES   REMARKS
SUPERIOR ARPT  CLOUDY    43  33  68 NE17G24   30.12R
ASHLAND        CLOUDY    44  32  62 NE17G26   30.11R
HAYWARD        CLOUDY    50  29  44 NE18      30.03R
SIREN          CLOUDY    52  22  31 E6        30.02S
CUMBERLAND     CLOUDY    50  23  34 E5        30.01S
RICE LAKE      CLOUDY    50  24  35 E7        30.02S
CHETEK         CLOUDY    48  34  58 SW3       30.01S
LADYSMITH      CLOUDY    51  22  31 NE13      30.03R
EAU CLAIRE     NOT AVBL
MENOMONIE      LGT RAIN  41  40  99 E7        30.03S
NEW RICHMOND   DRIZZLE   43  33  68 SE10      30.03S
OSCEOLA        CLOUDY    46  35  63 S5        30.05F
$$

WIZ003>005-009-010-017-018-282100-
NORTH CENTRAL WISCONSIN

CITY           SKY/WX    TMP DP  RH WIND       PRES   REMARKS
MANITOWISH WTR PTSUNNY   53  20  27 E6        30.02S
ARBOR VITAE    PTSUNNY   54  17  23 SE9G16    30.02S
WOODRUFF       PTSUNNY   54  17  23 SE9G16    30.02S
RHINELANDER    CLOUDY    53  18  25 E13       30.01F
EAGLE RIVER    MOSUNNY   53  15  22 NE5G16    30.02F
LAND O LAKES   MOSUNNY   53  17  23 SE12      30.03S
PHILLIPS       PTSUNNY   51  21  31 E10       30.01F
TOMAHAWK       CLOUDY    52  19  27 E8        30.02S
MEDFORD        CLOUDY    46  25  43 E8        30.00S
MERRILL        PTSUNNY   49  23  36 SE13G20   30.01F
$$

WIZ029-030-035-036-043>047-282100-
CENTRAL WISCONSIN

CITY           SKY/WX    TMP DP  RH WIND       PRES   REMARKS
WAUSAU         LGT RAIN  45  33  63 SE12      30.01R
MOSINEE        LGT RAIN  39  36  87 E6        30.04R WCI  35
MARSHFIELD     LGT RAIN  40  35  83 E17G24    30.00S WCI  31
STEVENS POINT  LGT RAIN  36  34  92 E12       30.03S WCI  28
WAUPACA        CLOUDY    41  37  83 NE6       30.03S
WAUTOMA        NOT AVBL
WISC RAPIDS    LGT RAIN  39  36  89 E8        30.03R WCI  33
CAMP DOUGLAS   LGT RAIN  41  41 100 NE13      29.97F
$$

WIZ011>013-019>022-031-037>040-048>050-282100-
NORTHEAST WISCONSIN

CITY           SKY/WX    TMP DP  RH WIND       PRES   REMARKS
ANTIGO         CLOUDY    48  26  41 SE14      30.02S
SHAWANO        CLOUDY    49  26  41 E8        30.04F
OCONTO         CLOUDY    45  30  54 E7        30.06S
STURGEON BAY   CLOUDY    45  28  53 E10       30.08S
GREEN BAY      CLOUDY    47  30  51 NE10      30.03F
MANITOWOC      NOT AVBL
APPLETON       CLOUDY    43  27  52 E13G21    30.00F
CLINTONVILLE   LGT RAIN  41  32  70 E7        30.05S
OSHKOSH        CLOUDY    42  33  70 E13       30.01S
$$

WIZ032>034-041-042-053>061-282100-
SOUTHWEST WISCONSIN

CITY           SKY/WX    TMP DP  RH WIND       PRES   REMARKS
LA CROSSE      CLOUDY    43  36  76 E12       29.98R
SPARTA         CLOUDY    40  39  94 E7        29.98S
VIROQUA        CLOUDY    40  38  94 E13       29.94S WCI  33
BOSCOBEL       CLOUDY    45  39  79 E7        29.95R
PRAIRIE DU CHI CLOUDY    46  39  76 NE8       29.93R
PLATTEVILLE    CLOUDY    46  42  87 E10       29.91R
$$

WIZ056-057-062-063-064-067-068-282100-
SOUTH CENTRAL WISCONSIN

CITY           SKY/WX    TMP DP  RH WIND       PRES   REMARKS
REEDSBURG      CLOUDY    39  38  93 E12       29.96S WCI  32
BARABOO/DELLS  CLOUDY    39  37  91 E13G18    29.96S WCI  32
LONE ROCK      NOT AVBL
MINERAL POINT  CLOUDY    43  41  93 E10       29.92R
MADISON        CLOUDY    41  37  86 E12       29.95S
MIDDLETON      CLOUDY    43  38  83 E10       29.95R
WATERTOWN      CLOUDY    39  38  94 E16       29.95F WCI  31
MONROE         CLOUDY    46  41  81 NE15      29.90S
JANESVILLE     CLOUDY    48  39  71 E13G18    29.93R
$$

WIZ051-052-058>065-066-070>072-282100-
SOUTHEAST WISCONSIN

CITY           SKY/WX    TMP DP  RH WIND       PRES   REMARKS
MILWAUKEE      CLOUDY    40  37  89 NE15      29.98R FOG     WCI  32
WAUKESHA       CLOUDY    37  36  93 NE17G23   29.98R FOG     WCI  28
MILWAUKEE/TIMM CLOUDY    37  36  93 NE8G17    30.00R FOG     WCI  31
RACINE         CLOUDY    41  36  82 NE16      29.97R
BURLINGTON     CLOUDY    41  37  85 NE12      29.94S
KENOSHA        CLOUDY    42  37  82 E18G24    29.95R
FOND DU LAC    CLOUDY    41  36  82 E15G22    30.01R
SHEBOYGAN      CLOUDY    42  34  73 E15       30.00F
WEST BEND      CLOUDY    37  36  93 E15G24    29.99R WCI  28
JUNEAU         CLOUDY    38  36  91 E14G21    29.99R WCI  30
$$

LSZ147-162-282100-
LAKE SUPERIOR

STATION/POSITION TIME  TEMP    WIND        PRES    WAVE
                       AIR SEA DIR/SP/G            HT/PER
                 (UTC) (F)     (DEG/KT/KT) (MB)    (FT/S)
W MID LAKE BUOY  1850   37 36   60/ 17/ 19 1021.3R   4/ 5
DEVILS ISLAND    1900   37      50/ 22/ 24 1021.0F
PORT WING        1901   40      40/ 21/ 26 1019.6
SAXON HARBOR     1900   38      40/ 15/ 18 1019.0
$$

LMZ867-665-643>646-282100-
LAKE MICHIGAN

STATION/POSITION TIME  TEMP    WIND        PRES    WAVE
                       AIR SEA DIR/SP/G            HT/PER
                 (UTC) (F)     (DEG/KT/KT) (MB)    (FT/S)
CHAMBERS ISLAND  1900   42      20/ 10/ 13 1018.6S
N MID LAKE BUOY  1850   39 39   50/ 12/ 14 1018.5R   2/ 4
NORTHPORT PIER   1900   41      60/ 11/ 14 1018.3S
ALGOMA LAKESHORE 1900           60/ 18/ 20   N/A
KEWAUNEE LAKESHO 1900   41      40/ 11/ 14 1016.9R
SHEBOYGAN LAKESH 1900   39      80/ 25/ 28 1017.2F
PORT WASHINGTON  1900   40      60/ 16/ 21 1016.6R
S MID LAKE BUOY  1850   40 40   70/ 16/ 17 1014.0S   3/ 5
KENOSHA   LAKESH 1900   40      50/ 17/ 19 1013.9S
$$

TC  - TEMPERATURE IN CELSIUS
VSB - VISIBILITY IN STATUTE MILES
WCI - WIND CHILL INDEX
HX  - HEAT INDEX





USA.gov is the U.S. government's official web portal to all federal, state and local government web resources and services.